User: anonymous   Login
Location: Theodore Roosevelt Nature Center
(40.5943°N, 73.5104°W)
Time: 17:26:04
(UTC-05:00)
Language:

XW-2C - Orbit

View from above orbital plane
View from above orbital plane
View from above satellite
View from above satellite

Ground track
Ground track

The orbit data is extracted from the following two-line orbital elements,

1 40906U 15049H   19346.40079042  .00000701  00000-0  40099-4 0  9991
2 40906  97.4721 345.6169 0013589 311.1583 186.4036 15.15857441233763
Epoch (UTC): 12 December 2019 09:37:08
Eccentricity: 0.0013589
inclination: 97.4721°
perigee height: 509 km
apogee height: 528 km
right ascension of ascending node: 345.6169°
argument of perigee: 311.1583°
revolutions per day: 15.15857441
mean anomaly at epoch: 186.4036°
orbit number at epoch: 23376

The dashed part of the orbit path shows where the satellite is in the earth's shadow,  

DLR